Location: ??
(34.7252°N, 135.5457°E)
Time: 08:46:29
(UTC+00:00)

OAO 3 Rocket - Pass Details

Date: 24 September 2020
Orbit: 629 x 683 km, 35.0° (Epoch: 28 October)

Event Time Altitude Azimuth Distance (km) Brightness Sun altitude
Exits shadow 19:41:07 16° 223° (SW) 1,728 4.9 -14.5°
Maximum altitude 19:44:43 43° 157° (SSE) 940 4.1 -13.8°
Drops below altitude 10° 19:49:24 10° 87° (E) 2,113 7.3 -12.8°
Sets 19:51:53 0° 80° (E) 3,032 8.8 -12.3°
